Wind_Speed
28 28 28 25 24 23 22 22 22 21 22 22 21 21 20 19 19 18 17 16 15 15 14 13 13 12 11 11 10 10 10 10 9 9 10 9 8 8 8 8 8 8 9 9 9 10 9 8 8 7 7 7 6 6 5 5 5 5 5 5 5 5 5 5 5 5 4 3 2 2 2 3 4 5 5 7 8 9 11 12 12 12 12 14 14
27 27 27 26 24 22 21 21 21 21 21 20 20 20 19 18 17 17 16 15 14 14 13 12 11 11 10 10 9 9 9 9 9 9 9 8 7 8 8 8 8 9 9 9 10 10 10 9 9 9 9 9 8 7 6 5 5 5 5 4 5 6 7 7 7 7 6 5 4 3 4 4 5 5 5 6 8 9 10 12 12 13 13 15 15
25 25 25 25 25 24 23 22 21 20 20 19 19 18 18 17 16 16 14 14 13 13 12 11 10 9 9 9 8 8 8 8 8 8 7 7 8 8 8 8 9 10 10 10 11 11 10 10 10 10 10 10 9 8 7 6 6 5 4 4 4 5 6 7 7 7 5 4 4 3 5 5 5 6 6 6 8 10 11 13 14 14 14 15 14
24 25 24 24 25 25 25 23 22 21 20 19 18 18 17 17 16 15 14 13 12 11 10 10 9 8 8 7 7 7 8 7 7 7 7 7 8 8 9 9 9 10 10 10 11 11 10 11 11 11 10 10 9 8 7 7 6 5 4 4 3 3 4 4 4 5 4 2 3 3 4 5 6 6 6 7 9 11 12 14 14 14 15 15 14
25 26 25 25 24 24 24 23 22 22 20 19 19 18 17 16 16 15 13 12 11 10 9 8 7 7 7 6 6 7 7 6 6 7 7 7 8 9 9 10 9 10 9 10 10 10 10 11 11 10 10 10 10 9 8 7 6 5 5 4 4 4 4 3 4 6 4 4 5 3 4 5 7 7 6 8 9 12 13 15 15 15 15 14 14
27 27 27 26 24 23 22 22 21 20 19 18 18 17 16 15 14 13 12 11 10 8 8 7 6 5 5 6 6 7 6 6 5 6 6 7 8 9 9 10 9 10 9 10 10 10 10 10 10 10 10 10 10 10 9 8 8 7 6 5 5 6 6 6 6 6 6 7 5 5 6 7 8 7 8 9 10 13 14 15 15 14 14 14 14
28 28 27 25 24 22 21 20 19 18 17 16 16 15 14 14 13 12 11 10 9 7 6 6 5 5 6 7 7 6 5 5 5 6 7 7 8 9 9 9 9 10 10 9 9 9 10 10 10 10 10 10 11 11 10 9 9 9 8 7 6 7 7 7 6 7 7 8 7 7 8 8 8 8 9 11 12 14 14 15 14 14 14 13 14
28 27 26 25 23 22 20 19 18 17 17 16 15 14 14 13 12 11 10 9 9 8 7 7 7 7 7 7 6 5 4 4 6 7 7 7 8 8 9 9 8 9 10 9 9 9 9 10 11 11 11 11 11 11 11 11 11 11 10 8 8 8 8 8 8 8 8 9 9 9 10 9 9 9 10 13 14 14 14 13 13 14 13 14 14
26 25 25 24 23 21 20 19 18 17 17 16 15 14 13 12 11 11 10 10 9 9 9 9 9 9 8 7 5 4 4 6 7 7 7 8 8 9 9 8 8 9 9 9 9 9 10 10 10 10 11 12 11 11 11 12 12 12 12 11 10 10 9 9 9 10 9 9 10 11 11 10 10 11 12 13 14 13 13 13 14 13 13 15 15
24 24 23 22 21 20 19 18 18 17 17 16 15 14 13 13 12 12 11 11 11 11 11 11 10 9 7 5 5 5 6 7 8 8 8 8 8 9 9 8 8 9 9 9 9 9 9 10 10 10 11 12 12 12 12 13 13 12 12 12 12 12 10 9 10 10 10 10 11 12 13 12 12 12 13 13 13 13 13 14 14 14 14 15 15
24 23 22 21 20 19 18 18 18 17 16 16 15 15 14 14 14 13 13 13 12 12 11 10 9 8 6 6 6 7 7 8 8 9 9 8 8 9 9 9 8 9 9 8 8 8 8 9 9 10 11 11 11 11 13 13 12 13 13 13 13 12 10 11 11 11 11 11 12 13 14 13 13 12 13 13 13 13 13 14 14 14 15 16 15
22 21 21 20 19 19 18 18 18 17 16 16 16 16 15 15 15 15 14 13 12 11 10 9 8 8 8 8 8 8 8 9 9 9 9 8 8 9 9 9 8 8 8 7 8 8 8 8 9 10 10 11 10 11 13 13 12 13 14 14 13 12 12 13 13 12 12 14 13 14 14 14 14 13 13 13 13 13 12 13 14 15 15 16 15
21 20 19 19 19 18 18 18 17 17 16 16 17 17 17 16 15 15 14 12 11 10 9 9 9 9 9 9 9 8 9 9 9 9 9 9 8 9 9 9 8 7 6 7 7 8 9 10 11 11 11 11 10 11 12 12 11 13 14 14 14 13 13 14 15 13 14 15 14 14 14 15 15 14 13 13 12 12 12 12 14 15 15 15 14
20 19 18 18 17 17 17 17 17 16 16 17 17 17 18 17 15 14 13 11 10 10 9 9 9 10 10 10 10 9 10 10 10 10 9 9 10 10 10 9 8 7 6 6 7 10 11 12 13 13 12 12 11 11 11 11 11 12 14 14 15 14 13 14 14 14 14 14 14 14 14 14 15 14 12 11 11 11 11 12 13 14 14 13 12
19 18 17 16 16 16 15 16 17 17 17 18 18 17 17 16 15 13 12 11 11 10 9 9 10 10 11 10 10 10 10 10 10 10 10 10 11 11 11 10 8 7 7 7 9 10 12 13 14 14 13 13 12 12 12 12 11 12 13 14 15 14 14 13 14 14 14 13 13 14 14 14 14 13 11 10 10 11 11 11 12 12 12 11 11
19 17 16 15 15 15 15 16 17 18 17 17 17 17 16 15 13 12 11 11 10 10 10 10 11 11 11 11 11 10 10 10 10 11 11 11 12 13 11 10 9 8 9 9 10 12 13 14 14 14 14 14 13 13 14 14 13 12 13 13 14 14 14 13 13 13 13 13 13 13 12 12 12 11 9 9 10 11 11 10 10 11 10 10 9
19 17 16 15 14 14 14 16 18 18 17 17 16 16 15 14 13 12 10 10 10 10 11 12 12 12 11 11 11 10 10 11 11 12 12 12 12 12 12 11 9 10 11 12 13 13 14 14 14 14 14 14 14 14 15 16 15 14 13 13 13 13 13 13 13 12 12 12 11 11 11 10 10 10 9 8 9 10 11 10 10 10 9 8 8
19 17 15 14 13 13 13 14 17 18 17 17 16 15 15 14 13 11 10 11 12 12 12 12 12 12 11 11 11 11 10 11 12 12 12 12 12 12 12 11 11 11 13 14 15 15 15 14 14 14 14 14 14 14 14 16 17 16 13 13 13 12 12 13 12 12 11 10 10 9 9 8 8 9 8 8 9 9 10 10 9 9 8 7 7
20 18 16 14 12 12 12 13 16 18 18 17 16 15 15 14 12 11 11 13 13 13 13 12 12 12 11 11 11 11 11 11 11 11 12 12 12 13 12 12 12 14 15 16 16 16 15 14 14 14 14 14 14 14 14 15 16 16 14 12 13 13 12 12 11 11 10 9 9 9 8 8 8 8 8 7 8 9 9 8 8 8 7 7 7
20 19 16 13 12 11 11 12 15 17 18 17 16 16 15 14 13 12 13 15 15 13 13 12 12 12 11 12 13 13 12 12 12 12 12 13 13 13 13 12 13 14 15 15 15 15 14 13 13 14 14 14 14 13 14 14 14 14 13 12 12 12 12 11 11 10 8 7 7 7 7 8 8 7 7 7 7 8 7 7 7 7 7 7 7
20 18 15 13 13 11 10 13 16 17 17 17 16 16 15 14 13 14 15 15 15 13 13 13 12 12 12 14 13 12 13 13 13 13 13 13 12 12 12 12 12 13 13 13 14 13 12 12 13 14 14 14 14 13 14 14 13 13 13 13 12 11 12 11 10 9 7 5 5 5 6 6 7 6 6 6 6 6 6 6 6 6 6 6 5
19 18 15 13 12 11 11 14 16 17 16 16 16 15 14 13 13 15 15 16 15 13 13 13 12 12 13 14 13 11 12 13 12 12 12 12 11 11 11 11 11 12 11 11 11 11 11 12 13 13 14 14 13 13 13 13 13 12 12 12 11 11 12 11 11 9 7 6 5 5 5 5 4 4 5 5 5 5 4 4 5 5 5 4 4
18 17 15 14 12 10 12 15 15 16 16 16 16 15 14 13 14 15 15 16 15 14 13 12 12 12 13 13 12 11 12 12 11 11 10 10 10 10 10 10 10 11 10 10 10 10 11 12 13 13 13 14 13 13 13 13 13 13 12 10 10 11 12 11 11 10 9 8 7 6 6 5 5 4 4 4 3 2 2 2 3 4 3 3 3
17 15 15 14 12 11 12 14 15 16 16 16 16 15 14 13 14 15 15 15 14 14 13 12 11 12 14 13 13 11 11 11 10 9 9 9 9 8 8 9 10 10 9 9 10 10 11 11 12 12 13 13 13 13 13 13 13 11 10 9 10 10 9 10 11 12 12 11 9 8 8 8 7 6 5 4 3 2 2 2 2 2 1 1 3
16 15 15 13 12 12 13 14 15 16 15 15 16 15 14 14 14 15 15 15 14 14 13 12 11 11 14 14 12 11 11 10 8 7 8 8 7 6 7 9 9 9 8 9 10 11 11 11 12 12 12 13 13 13 12 12 12 11 9 9 9 8 8 9 10 12 12 12 12 11 10 10 8 8 7 6 5 4 3 3 2 1 1 1 2
16 15 14 13 12 13 14 14 15 16 15 15 16 14 13 14 14 14 14 14 14 14 13 13 12 11 13 13 12 11 11 9 8 8 7 7 7 6 7 9 9 8 8 8 9 10 10 10 11 10 11 13 13 11 12 12 12 11 10 9 7 6 7 8 9 10 11 11 12 12 12 11 10 10 9 8 8 7 6 5 4 3 3 3 3
16 15 14 14 13 14 14 15 16 16 16 15 15 14 13 14 14 14 14 14 14 14 13 13 11 10 11 12 11 10 10 9 8 8 7 7 8 7 7 9 9 8 8 8 8 9 9 10 10 8 9 12 12 10 11 11 11 10 10 9 7 6 7 7 7 8 9 10 10 11 11 11 10 10 10 10 9 9 8 8 7 6 5 5 5
16 15 14 14 14 14 15 16 16 16 16 16 15 15 14 14 14 14 14 14 14 14 13 13 11 11 10 10 10 9 8 8 8 7 7 7 7 8 7 8 9 8 8 8 8 8 9 9 10 8 8 10 11 9 9 10 10 9 9 9 8 7 7 6 6 7 8 9 9 9 10 10 10 10 9 9 9 9 9 9 9 9 8 7 7
16 16 15 15 15 15 15 16 17 17 17 16 16 15 14 14 14 14 14 15 14 13 13 11 11 11 10 9 9 8 7 8 8 6 5 6 7 6 6 7 7 7 7 8 8 8 9 8 9 9 8 9 10 9 8 8 9 8 9 9 9 7 7 6 6 6 7 8 8 8 9 10 10 9 9 9 9 9 9 10 10 10 10 9 8
17 16 16 16 16 16 16 16 17 17 17 17 16 15 14 14 14 14 15 15 15 14 12 10 10 10 9 8 7 7 6 6 7 6 5 5 6 6 6 6 7 7 8 8 8 8 9 9 9 8 8 9 9 8 8 8 8 8 8 9 9 7 7 7 6 6 6 7 7 8 8 9 9 9 9 9 9 9 10 10 10 10 10 9 9
18 16 16 16 17 17 17 17 18 18 17 17 16 15 15 14 15 15 15 16 15 14 13 11 12 11 10 8 7 7 5 4 5 5 5 4 5 6 6 7 7 8 9 9 8 8 9 9 9 9 9 9 9 9 8 7 8 8 8 8 8 7 6 7 7 6 6 6 7 7 7 8 8 8 8 9 9 10 10 10 10 10 10 9 9
19 17 17 17 17 18 18 17 18 18 18 17 16 16 16 15 16 16 16 16 15 15 14 12 12 12 11 9 7 7 6 5 5 5 4 4 4 5 6 6 7 8 8 8 8 8 9 8 8 10 10 9 9 9 8 7 7 7 8 9 8 8 7 7 8 7 6 6 6 6 7 7 8 8 8 9 9 10 10 10 10 9 9 9 8
20 17 17 18 18 18 18 18 18 18 17 17 16 16 16 16 16 16 16 15 14 15 14 13 12 12 11 9 7 7 6 6 5 5 5 4 4 5 6 6 6 7 7 7 7 7 8 8 7 8 9 9 9 8 7 8 7 6 8 9 8 8 7 7 7 7 7 7 7 6 6 7 7 8 8 8 9 9 10 9 9 9 8 8 7
20 18 17 18 19 18 18 18 19 18 17 17 17 17 17 16 17 17 17 16 14 14 13 12 12 12 11 9 8 7 7 6 6 6 6 5 5 6 7 6 6 6 5 6 7 6 7 8 7 7 8 9 8 8 8 8 7 6 8 9 8 8 8 7 7 7 7 7 7 6 6 7 8 8 8 8 8 9 10 10 9 8 7 7 7
20 18 18 19 19 19 19 19 19 18 17 17 17 18 18 18 18 17 17 16 15 14 13 12 12 12 11 9 8 8 7 7 7 7 6 6 6 6 7 7 6 6 5 5 7 7 6 7 7 7 8 9 8 8 8 8 7 7 7 8 8 8 8 7 6 6 7 7 7 7 7 8 8 9 8 8 8 9 10 10 9 8 8 8 7
21 18 18 19 20 19 19 20 19 19 18 17 18 19 19 19 19 18 18 17 17 15 14 13 12 12 11 9 9 9 8 7 7 7 6 6 7 7 7 7 6 6 5 4 6 7 5 6 8 7 8 8 8 8 7 8 8 7 7 8 8 8 7 7 6 6 6 6 6 7 8 8 8 9 8 8 9 9 9 9 9 9 9 9 9
21 19 18 19 20 19 19 20 20 19 18 18 19 19 19 20 19 18 19 19 17 16 15 14 13 12 10 10 10 10 9 8 7 7 7 7 7 7 7 7 8 6 5 5 5 6 6 6 7 7 7 7 8 8 7 7 8 8 8 8 8 8 7 6 5 5 5 5 6 6 7 7 8 8 7 7 8 9 9 9 9 9 9 10 10
22 20 19 19 20 20 20 21 20 19 19 19 20 20 20 20 19 19 19 19 18 17 16 15 13 12 11 11 11 10 9 8 7 8 8 7 6 7 7 7 8 7 6 5 5 6 7 6 7 8 8 7 7 7 7 7 8 7 8 9 9 8 7 7 5 5 5 5 6 6 6 6 7 8 7 6 7 8 8 9 8 8 9 10 10
23 21 20 20 21 21 21 22 21 20 19 20 21 21 20 21 20 20 20 19 19 17 16 15 13 12 12 11 11 10 9 8 8 9 9 7 7 7 7 8 8 7 6 6 6 6 7 7 7 8 8 7 7 7 7 8 8 7 8 9 9 8 7 6 6 5 4 5 6 5 6 7 7 7 7 5 5 5 6 7 6 7 9 9 9
24 22 22 21 22 23 22 22 22 21 20 21 22 22 22 22 21 21 20 19 19 18 17 15 13 13 13 12 11 10 9 8 8 9 9 8 7 7 8 9 8 7 7 6 7 7 8 8 8 8 9 8 8 7 8 8 8 8 8 9 9 8 7 6 5 5 4 5 5 5 6 7 7 6 6 5 3 3 4 5 5 6 7 7 7
25 24 23 22 22 23 23 22 22 21 20 20 23 23 22 22 20 20 20 19 18 17 16 16 14 13 13 12 11 10 10 9 8 9 10 9 7 7 8 9 8 8 8 7 7 7 8 9 8 8 8 9 8 8 8 8 8 8 8 8 8 8 6 5 5 4 4 4 5 5 7 7 6 6 5 4 4 4 4 5 5 6 5 5 6
27 25 24 23 22 23 23 22 23 22 20 20 22 23 22 21 20 20 20 19 18 16 16 16 14 14 14 13 11 10 10 9 9 9 9 9 8 8 9 9 9 8 8 8 8 7 8 8 8 8 7 7 8 8 8 8 8 8 8 8 7 7 6 4 4 4 4 4 4 6 6 6 5 5 4 3 4 5 5 6 7 7 6 6 6
27 26 25 24 23 23 24 23 23 22 21 20 21 22 22 21 20 21 21 19 19 18 17 16 15 14 15 14 12 11 10 9 9 9 9 8 8 8 8 9 9 8 7 8 8 8 8 7 7 7 7 7 7 7 8 8 7 7 7 7 6 6 6 4 4 4 4 4 4 5 5 5 4 4 4 4 4 5 6 7 8 7 7 7 6
28 27 27 26 25 24 24 24 24 23 22 21 21 21 22 22 22 21 21 20 19 19 18 17 15 14 15 14 12 11 10 9 8 8 8 8 8 7 8 8 9 8 8 7 8 8 8 7 6 7 7 6 6 7 8 7 6 6 6 6 5 5 5 5 5 4 4 4 5 5 5 4 4 4 5 5 5 6 7 7 7 7 8 9 9
29 29 28 27 26 25 24 24 25 24 23 23 22 22 23 24 24 23 23 23 22 20 19 18 16 14 14 14 13 12 10 9 8 8 8 8 7 7 7 7 8 8 8 7 8 8 8 7 7 6 6 6 6 6 7 7 6 6 6 5 4 5 5 6 5 5 4 3 4 5 6 5 3 4 5 5 5 6 6 6 7 8 9 10 11
29 29 28 27 27 26 24 24 25 25 25 24 23 23 23 24 25 25 25 24 23 21 19 18 16 14 14 14 13 12 11 10 9 8 8 8 8 7 6 7 8 8 8 7 7 7 7 7 6 6 5 5 7 7 7 7 6 6 5 5 5 5 6 6 6 6 5 4 4 5 7 7 4 3 4 4 4 5 5 6 7 8 9 11 13
28 29 29 29 28 27 26 25 25 25 25 25 25 24 23 23 24 25 24 22 20 18 18 17 16 15 14 13 13 13 12 10 10 9 8 8 8 7 6 6 7 7 7 7 6 5 6 6 6 6 5 6 6 7 7 7 6 6 5 6 6 5 5 6 6 6 6 6 5 4 8 10 7 5 5 4 6 7 7 8 9 10 11 13 15
28 28 29 29 29 28 27 26 25 25 25 25 26 25 24 23 23 25 25 22 19 18 18 18 17 17 15 14 14 13 12 11 10 9 8 8 8 7 7 6 6 7 7 6 6 5 5 5 6 6 6 6 6 6 7 7 7 7 6 6 6 6 5 5 5 5 5 5 6 7 8 10 9 7 7 7 8 9 8 9 10 11 13 14 15
28 28 28 29 29 28 27 28 27 25 25 26 26 25 25 24 23 24 25 24 22 21 21 20 19 18 17 15 14 14 13 12 10 9 9 8 8 8 7 7 6 6 6 6 5 5 4 4 4 5 5 6 6 6 6 6 8 8 7 7 7 6 6 5 5 5 5 4 5 8 6 6 6 5 6 6 7 7 8 9 11 12 14 15 15
28 27 28 29 30 29 28 28 28 26 26 26 26 26 25 26 25 24 25 25 25 24 23 22 20 19 18 16 15 14 13 12 10 9 8 8 8 8 7 7 7 6 6 6 5 5 4 4 3 4 5 5 5 6 6 7 7 8 7 7 7 7 7 7 5 5 6 4 3 5 5 4 5 4 4 5 6 7 8 10 12 13 14 15 15
28 28 28 30 31 30 28 28 29 28 27 26 26 26 26 26 26 25 25 26 26 25 24 23 22 20 19 17 16 14 13 12 11 9 8 8 8 8 7 7 7 6 5 5 5 5 4 4 3 3 4 4 5 5 6 7 7 7 8 7 7 7 6 6 6 5 5 4 4 5 6 6 5 5 6 6 6 8 9 11 13 13 14 14 13
Wind_Direction
135 135 135 134 128 127 126 127 127 127 127 130 132 133 135 136 137 135 132 129 129 128 125 121 117 111 103 96 88 80 77 80 79 67 58 50 48 55 55 51 47 58 68 72 76 78 78 76 73 77 88 96 103 112 113 117 124 127 128 127 135 140 144 152 157 163 162 160 153 126 95 86 90 98 95 91 92 80 72 71 70 69 67 67 67
136 136 136 135 131 129 128 128 129 130 130 132 133 134 137 140 140 137 134 131 130 127 124 122 116 108 100 95 89 81 79 82 76 64 57 54 55 58 54 50 51 66 75 76 77 80 83 82 79 79 85 91 96 103 105 109 114 117 120 126 135 136 139 146 158 164 156 154 149 134 121 105 108 114 103 99 97 84 76 73 70 68 65 65 65
137 137 137 137 134 134 133 133 133 133 133 135 135 137 140 142 142 138 136 132 130 128 126 121 113 107 102 98 91 85 86 85 74 63 60 61 61 60 56 50 54 68 77 82 83 84 88 87 84 80 82 87 91 94 93 95 99 105 110 117 131 134 134 152 170 155 137 150 144 129 132 112 109 122 112 103 93 82 76 72 69 67 65 64 64
138 137 137 136 135 136 136 137 136 135 136 138 138 141 143 144 142 139 136 134 133 130 127 120 114 108 103 97 91 92 93 87 73 62 62 65 63 62 59 53 58 70 77 85 84 85 86 86 86 85 85 86 86 85 84 85 89 95 100 109 117 119 136 169 163 103 84 107 100 101 142 121 112 127 116 100 89 79 75 73 71 68 65 64 63
139 138 136 135 135 136 135 136 136 134 136 137 139 141 142 142 139 138 138 138 136 132 127 120 114 108 100 93 93 97 93 83 67 61 66 66 64 65 61 57 64 72 78 86 85 85 84 83 86 86 85 85 84 82 81 81 83 88 92 101 107 112 126 128 86 84 92 103 109 124 142 130 123 128 108 94 86 79 76 73 71 69 67 65 66
138 136 135 135 135 136 135 134 134 133 134 135 137 138 139 139 139 140 142 142 140 135 129 123 115 105 99 98 98 97 90 78 65 68 74 67 66 69 64 61 68 74 80 85 86 85 85 87 89 87 82 81 82 81 79 79 79 80 85 96 112 119 112 104 94 95 101 104 119 134 132 131 126 122 100 91 86 81 77 74 72 70 69 68 69
138 137 136 136 135 136 135 135 134 134 135 136 136 138 139 139 142 145 146 147 144 140 134 127 117 109 106 105 103 97 89 76 73 79 77 69 68 73 70 66 69 75 80 84 86 85 87 90 90 88 84 81 80 78 76 74 73 73 79 92 106 113 108 105 98 87 92 101 107 120 123 124 121 113 97 90 85 81 79 78 76 74 73 73 73
138 138 136 135 135 136 136 136 136 137 138 137 139 140 140 141 145 148 149 149 145 141 135 126 118 113 112 109 106 100 91 86 89 89 80 75 76 80 77 70 72 77 80 82 84 84 88 93 92 89 86 82 79 77 75 72 71 72 77 89 99 105 105 102 96 88 94 104 111 120 117 112 109 101 95 92 87 84 83 82 79 77 78 78 76
138 137 136 134 134 135 136 137 138 140 139 139 142 143 142 144 146 146 146 145 140 135 128 122 117 116 115 113 109 104 100 99 97 91 86 85 83 85 84 78 78 80 82 82 83 86 91 97 96 89 85 82 79 77 74 71 69 70 73 83 94 96 96 94 96 96 97 103 110 116 109 102 100 96 96 94 89 89 88 85 82 81 82 81 78
137 135 135 134 133 135 136 137 138 139 138 140 142 142 142 143 140 140 139 136 131 127 123 120 119 119 118 114 110 108 106 103 97 90 87 86 83 85 88 85 82 82 82 82 83 87 93 98 96 90 86 83 81 78 73 70 68 69 70 76 86 92 96 95 97 101 99 100 103 106 102 96 97 100 100 96 93 92 90 88 86 85 83 81 80
138 135 133 132 132 134 135 137 138 138 139 140 140 140 140 139 137 135 133 129 126 124 122 119 120 119 115 112 108 108 107 102 94 89 85 81 80 83 88 87 83 81 81 81 80 84 93 98 96 93 90 87 84 81 75 73 71 71 71 74 82 90 95 95 99 105 101 98 101 104 99 96 101 106 105 100 96 93 92 91 89 87 85 83 81
139 134 132 131 131 133 136 138 139 139 140 141 140 140 139 137 136 134 131 128 126 123 121 118 118 116 113 109 106 106 104 99 93 87 83 78 78 82 87 87 83 83 84 82 79 82 93 99 98 95 94 92 87 82 78 76 74 73 72 74 83 89 92 94 98 102 99 97 99 101 99 99 105 109 106 100 96 94 94 92 91 90 88 85 83
138 134 133 131 131 132 136 139 140 140 141 142 141 142 140 138 137 135 132 130 127 123 122 120 117 115 111 108 106 104 100 95 91 86 83 79 78 83 87 87 84 83 82 78 80 86 94 97 96 98 100 96 87 80 78 79 79 78 76 74 82 90 92 94 94 94 95 96 97 98 96 98 104 105 102 98 96 97 97 95 94 93 91 88 85
141 136 134 131 130 130 135 138 141 143 144 144 144 145 142 139 138 136 133 130 128 124 123 122 119 115 111 109 107 103 98 93 90 87 85 82 81 85 86 86 85 80 76 70 79 93 98 96 94 99 101 95 85 78 78 82 84 82 79 76 81 88 89 90 91 91 93 96 98 96 94 98 102 101 98 95 96 99 101 101 97 96 94 92 87
144 139 136 132 131 130 134 140 145 149 149 149 148 148 144 140 137 135 132 129 129 127 125 123 121 117 111 109 106 102 97 94 93 91 86 83 84 86 83 84 85 77 71 69 79 95 100 96 95 98 98 91 84 78 77 82 86 85 83 81 82 84 86 88 90 91 93 96 96 95 96 98 100 98 95 94 99 104 105 103 101 99 97 92 88
148 143 139 135 135 136 139 143 152 155 153 151 148 148 145 140 136 135 133 130 131 129 127 125 121 116 110 109 106 102 100 99 96 91 86 84 84 84 82 80 80 76 72 73 84 97 99 95 95 97 96 90 85 80 76 79 87 90 88 86 84 84 85 86 88 90 92 94 94 94 96 97 98 96 93 94 103 108 107 104 102 100 97 94 90
152 148 142 142 141 142 145 148 155 157 154 150 147 146 143 139 138 138 137 135 132 128 126 124 120 113 110 108 104 103 104 103 97 92 88 85 84 82 80 77 76 78 74 76 88 96 95 92 94 96 94 90 86 82 76 77 86 94 93 90 87 86 86 84 83 85 88 92 94 93 92 94 97 95 90 92 102 109 110 109 102 97 94 94 92
156 153 149 150 149 149 150 152 156 157 156 152 148 145 141 139 139 139 139 136 132 128 126 122 118 112 108 105 103 105 104 104 99 95 92 89 87 83 79 78 78 78 77 81 90 93 90 89 91 92 91 89 86 82 78 77 84 92 93 91 90 87 84 82 80 81 83 86 91 91 90 93 95 93 89 92 101 106 109 108 102 94 91 92 90
160 158 157 157 155 154 152 156 158 158 158 155 150 146 142 139 139 136 132 131 130 127 125 121 114 108 106 104 102 100 99 102 102 100 97 95 93 88 84 82 79 78 79 83 86 88 88 88 88 88 87 87 85 83 80 79 82 90 91 88 88 86 82 81 82 80 81 85 88 88 89 91 91 88 90 94 97 98 100 102 99 94 92 90 87
163 162 162 159 155 154 152 157 160 160 160 157 150 146 142 138 138 135 130 129 127 126 125 118 110 107 107 106 100 95 93 96 100 101 100 99 96 93 89 83 80 79 81 83 83 84 85 88 89 88 88 87 86 84 81 79 81 86 88 85 81 79 77 74 74 73 76 84 86 87 86 84 81 81 87 91 91 93 93 94 96 96 95 89 85
163 163 161 157 154 153 157 158 158 160 162 160 152 147 141 138 138 136 134 131 128 127 123 114 110 111 110 107 102 97 94 92 97 100 100 100 96 93 91 86 82 79 79 82 85 87 89 90 89 89 88 87 87 85 84 82 80 79 80 80 78 74 70 67 64 62 64 78 86 85 83 80 81 81 82 83 83 87 89 89 92 92 93 91 87
163 161 158 158 155 153 159 159 157 157 162 163 154 148 143 139 139 137 136 133 130 128 120 115 113 112 111 109 106 102 99 95 96 98 99 99 97 97 98 94 90 85 83 84 89 92 92 90 89 89 85 82 83 83 85 86 82 77 75 75 77 73 68 63 57 52 53 67 79 80 84 85 86 82 72 70 72 77 83 86 86 84 88 92 84
165 161 158 158 156 154 155 158 160 159 162 162 155 149 144 143 141 139 138 136 133 128 121 119 115 111 109 109 109 107 103 99 96 96 97 96 97 99 99 99 99 98 98 98 96 90 86 86 88 89 84 81 78 79 83 87 85 80 76 76 77 73 68 63 56 53 56 60 64 66 73 74 71 66 60 58 59 64 66 66 70 73 77 77 69
165 161 161 159 157 156 156 155 158 159 159 159 156 152 147 147 144 142 141 138 134 130 128 123 116 112 106 107 110 108 103 101 101 100 98 93 92 96 96 98 99 101 106 106 102 93 88 89 91 88 84 80 74 76 81 84 83 80 80 82 78 75 72 70 63 60 62 63 63 64 65 65 62 60 61 64 62 53 43 31 39 48 36 32 48
166 165 165 162 158 158 160 156 155 157 158 158 157 154 151 149 147 146 142 138 135 133 133 123 116 116 107 107 110 106 103 105 105 99 93 90 91 95 96 97 97 99 103 104 104 100 97 96 98 97 91 84 78 78 81 83 84 80 79 78 76 77 74 70 67 64 66 67 67 67 66 65 63 61 60 61 61 55 42 33 28 11 340 356 26
171 170 168 163 160 161 162 158 157 157 157 159 158 156 153 150 148 146 141 139 137 135 133 125 123 121 112 112 110 104 102 102 98 89 82 86 90 94 94 97 97 94 93 94 93 94 98 99 101 102 96 89 82 80 81 83 84 80 75 72 73 78 75 69 68 68 68 70 70 69 68 65 62 60 57 56 56 54 48 43 39 25 12 13 23
174 173 170 164 162 164 164 160 162 160 157 159 160 160 155 151 151 147 144 141 138 137 133 130 130 125 118 117 110 102 102 97 87 81 83 87 88 89 92 93 92 87 85 86 86 93 99 97 95 97 98 95 88 84 83 82 82 83 80 74 72 73 74 71 68 70 70 71 72 70 69 65 63 60 57 57 57 56 53 50 48 46 43 41 42
175 174 173 166 166 168 166 163 164 161 159 160 161 164 158 155 155 152 150 144 140 140 137 137 137 135 134 124 111 104 102 94 80 79 89 88 81 84 95 98 96 95 89 90 93 93 92 93 100 102 97 95 91 85 82 83 85 88 87 80 72 66 69 71 68 70 71 70 70 68 68 66 64 61 59 58 58 59 58 56 57 57 58 58 57
176 176 175 169 171 171 168 166 165 163 163 163 165 167 161 161 160 155 153 147 147 144 139 142 142 146 146 133 124 118 108 99 94 97 96 86 80 81 97 101 100 103 101 101 97 93 95 96 103 105 99 97 100 98 91 89 92 93 91 86 77 65 64 71 73 70 71 71 69 69 70 67 64 61 59 58 58 60 60 60 60 61 62 62 60
178 179 178 173 174 173 171 169 166 167 167 166 168 167 166 169 162 159 159 153 153 145 139 148 149 152 149 139 136 122 108 105 107 114 110 101 97 94 104 106 108 117 114 103 94 96 102 98 96 105 112 110 110 107 100 99 98 94 89 85 81 72 65 73 76 73 73 71 68 69 68 67 65 62 60 59 58 58 59 59 58 57 57 56 56
181 183 181 177 176 174 173 171 170 171 169 168 170 168 170 174 164 166 166 158 155 144 143 157 159 158 156 151 137 115 108 109 104 109 109 106 100 100 112 117 117 115 108 99 99 99 96 99 106 116 124 121 116 108 102 102 98 96 94 88 85 79 70 71 74 72 73 72 65 63 63 64 63 60 58 56 54 53 54 54 53 51 50 49 48
184 185 183 179 177 176 176 173 173 172 170 170 172 170 171 170 166 169 165 157 155 146 149 166 165 162 162 156 139 123 124 121 109 105 98 87 78 83 103 110 104 99 101 103 105 101 96 102 109 116 125 125 119 111 106 103 97 101 102 97 90 82 72 66 71 70 64 66 64 59 57 60 59 55 52 48 46 45 43 43 42 40 41 42 39
185 186 183 180 179 179 178 175 176 173 171 172 173 173 172 168 166 166 162 159 157 151 158 168 164 163 163 156 145 134 130 125 118 116 110 104 93 89 97 97 95 101 112 114 107 104 103 102 99 111 124 124 120 114 109 102 98 102 100 97 92 85 77 65 66 71 67 64 65 63 55 54 53 48 44 38 36 36 34 32 28 26 28 28 25
188 187 183 181 181 181 179 177 177 176 174 174 174 173 172 169 166 164 162 162 160 159 163 163 162 165 163 157 149 139 131 126 119 119 118 118 117 111 109 108 110 118 124 116 108 103 100 100 101 110 120 122 119 112 106 102 99 99 98 98 95 88 85 75 66 65 68 66 61 61 55 48 47 43 40 34 32 34 30 24 17 12 12 13 10
190 190 185 183 183 181 181 178 176 178 177 175 175 173 171 168 166 165 165 164 164 164 160 158 164 167 163 157 150 141 133 130 122 120 117 114 117 118 119 119 120 126 127 116 110 108 107 111 114 116 119 121 115 107 107 110 109 104 101 102 99 93 88 81 72 60 59 62 58 60 57 47 41 38 37 37 37 36 28 20 14 7 5 4 0
192 192 188 186 183 182 182 179 177 179 179 176 174 172 169 167 166 166 167 167 167 164 158 158 163 166 162 155 148 140 135 133 126 124 120 113 116 117 117 116 114 117 120 118 115 113 111 114 117 120 123 121 115 109 108 112 113 113 111 107 100 96 90 84 81 70 60 57 55 59 57 46 39 33 29 35 38 31 22 16 13 10 8 5 360
192 193 191 189 183 183 184 181 179 180 181 176 174 172 169 168 167 167 169 168 166 163 160 159 161 164 160 152 147 140 136 134 131 128 121 114 115 116 115 112 109 109 111 112 113 108 101 107 115 119 122 119 116 113 111 111 115 119 118 109 102 99 97 93 89 80 71 61 57 59 55 45 43 37 26 27 31 27 18 10 11 12 12 9 6
193 193 193 193 185 183 187 183 180 181 182 178 175 174 171 170 168 167 170 168 166 166 164 162 164 164 157 152 147 139 138 137 132 124 116 113 112 111 110 101 98 101 105 109 110 100 94 97 106 113 118 119 116 115 116 116 116 121 121 114 107 104 103 102 98 87 75 67 62 62 57 49 47 43 37 28 23 23 15 7 10 17 15 14 17
193 193 194 194 187 185 189 186 182 183 183 180 178 176 173 173 171 169 172 170 169 168 166 166 167 164 157 155 150 142 142 139 127 116 114 116 109 106 104 94 94 104 108 102 96 92 93 95 98 107 115 115 113 113 117 121 121 125 125 120 114 112 114 112 107 98 85 73 69 67 62 56 48 43 45 39 18 13 13 11 18 23 19 17 22
194 194 194 196 191 188 192 188 185 185 184 183 181 179 175 174 174 172 173 175 172 169 168 169 168 163 158 157 154 148 145 137 125 115 112 112 106 102 100 94 91 98 103 99 92 89 93 98 102 110 113 109 108 112 116 122 127 129 127 123 122 122 125 124 117 113 101 82 75 71 66 61 52 41 40 38 16 4 11 17 28 29 21 20 25
197 195 194 197 194 192 195 191 189 189 188 186 183 181 179 175 175 173 175 177 175 173 171 168 166 162 160 159 158 153 147 140 131 119 112 110 108 98 94 95 94 95 103 107 101 94 92 96 103 106 107 106 106 112 116 120 124 126 126 127 128 128 130 130 122 117 105 81 67 63 64 62 54 43 36 28 9 4 14 17 25 30 25 29 36
199 198 196 198 196 195 198 194 193 193 190 189 186 184 181 176 176 175 177 177 175 175 174 170 166 164 163 161 161 158 152 147 139 127 118 115 109 96 90 94 100 103 106 103 98 97 94 93 97 98 103 107 108 111 114 117 121 126 130 130 128 124 125 130 121 111 102 87 69 58 58 57 48 40 34 27 5 359 12 17 20 28 37 41 48
202 201 199 200 200 198 199 197 196 195 192 191 190 187 183 179 180 179 179 178 177 176 174 174 171 167 166 163 163 163 159 152 143 133 124 114 103 95 92 94 99 103 103 97 95 93 88 86 88 95 103 106 109 114 114 116 121 129 131 127 123 120 121 122 110 98 85 83 81 66 56 52 42 28 18 15 6 4 17 24 23 32 54 67 69
205 204 203 201 203 202 200 199 199 197 195 194 192 190 186 184 183 183 182 181 182 180 176 178 177 171 169 167 166 166 162 156 146 138 127 116 107 101 98 98 99 100 101 100 95 90 84 85 86 90 98 103 109 114 113 114 119 124 122 120 121 119 117 113 103 98 79 68 78 69 47 39 37 21 6 4 7 15 22 26 34 46 65 81 88
208 206 206 205 206 207 203 202 201 199 197 196 195 193 191 190 188 186 187 186 185 184 180 181 179 174 172 171 171 170 166 160 153 146 137 128 119 111 107 105 101 99 101 95 87 86 85 85 85 86 95 109 114 112 110 111 112 114 113 112 109 97 99 102 98 96 84 61 80 74 41 23 23 14 2 6 18 27 34 38 51 66 77 88 92
213 209 208 208 209 210 207 205 203 201 200 198 198 199 197 197 196 193 194 193 189 186 183 183 181 179 177 175 176 175 170 166 162 156 147 141 133 124 121 113 106 104 103 97 89 90 91 88 85 86 96 109 109 104 102 104 105 106 106 107 103 88 86 91 86 81 73 63 81 88 63 38 29 37 18 19 47 52 57 65 74 81 89 96 97
217 213 211 209 210 212 209 208 206 204 203 200 199 202 202 203 202 200 201 198 192 189 188 187 185 185 182 177 179 179 176 174 170 163 156 151 144 138 132 121 113 108 105 105 105 99 94 91 87 88 96 100 97 94 93 95 98 99 98 102 104 99 91 89 88 83 72 64 63 83 72 45 32 53 47 55 84 81 77 85 92 96 99 102 102
220 217 215 213 213 214 211 211 210 207 206 205 204 204 204 206 205 204 204 199 193 194 195 193 190 190 186 182 182 180 179 181 176 168 166 161 153 149 145 137 126 115 107 106 107 101 91 88 89 91 94 94 95 96 94 96 99 96 93 94 97 102 101 95 99 95 81 76 75 77 66 40 29 35 33 43 67 75 80 87 94 101 106 106 104
221 220 219 217 216 216 213 213 213 210 208 208 209 207 205 207 208 207 206 200 196 197 199 197 195 194 191 188 187 183 181 185 183 176 175 169 162 160 157 152 145 130 119 112 110 110 105 97 95 95 92 89 93 98 101 102 99 96 95 95 94 97 96 94 105 103 89 93 90 80 67 43 41 28 19 39 55 65 83 95 100 107 109 107 102
220 223 223 220 219 218 215 213 214 214 211 210 211 211 208 207 208 209 207 203 200 201 202 201 198 198 197 192 190 188 185 187 189 187 183 178 175 172 169 165 161 152 138 126 122 122 122 119 111 104 97 91 91 93 99 99 93 92 95 96 96 95 93 93 100 102 92 87 84 88 96 82 66 57 53 65 76 81 95 106 108 110 108 103 98
216 222 222 221 221 221 218 215 215 215 214 213 212 212 211 209 209 211 210 207 206 206 206 205 203 202 200 196 194 194 192 190 191 193 192 189 187 185 183 178 173 170 162 146 140 140 141 142 138 131 114 104 102 97 98 101 98 96 97 95 96 95 95 97 99 99 92 83 72 83 101 98 77 76 80 82 93 98 105 111 111 110 105 100 96
Height
3173 3175 3176 3177 3178 3179 3179 3181 3182 3183 3185 3186 3188 3189 3190 3191 3193 3194 3195 3196 3197 3198 3199 3200 3200 3201 3201 3202 3202 3203 3203 3204 3204 3204 3204 3204 3205 3205 3205 3205 3205 3204 3204 3204 3204 3205 3205 3205 3205 3205 3205 3205 3206 3206 3206 3206 3206 3207 3208 3208 3208 3209 3209 3210 3210 3210 3210 3211 3212 3212 3213 3214 3214 3215 3215 3215 3214 3214 3214 3214 3214 3214 3213 3213 3213
3173 3175 3177 3178 3179 3179 3180 3182 3183 3185 3186 3188 3189 3190 3191 3193 3194 3195 3196 3196 3197 3198 3199 3200 3201 3201 3202 3202 3203 3204 3204 3205 3205 3205 3205 3205 3205 3205 3205 3205 3205 3205 3205 3205 3206 3206 3206 3206 3206 3206 3206 3206 3206 3207 3207 3207 3207 3207 3208 3208 3208 3209 3209 3209 3209 3209 3210 3211 3212 3213 3214 3214 3214 3215 3215 3215 3215 3215 3215 3215 3214 3214 3214 3214 3214
3174 3176 3177 3179 3180 3181 3182 3183 3185 3186 3187 3188 3190 3191 3192 3193 3194 3195 3196 3197 3198 3199 3200 3201 3201 3202 3202 3203 3204 3204 3205 3205 3205 3206 3206 3206 3206 3206 3206 3206 3206 3206 3206 3206 3206 3206 3206 3206 3206 3207 3207 3207 3207 3207 3207 3207 3208 3208 3208 3208 3209 3210 3210 3209 3208 3210 3212 3213 3213 3214 3214 3214 3215 3215 3216 3216 3216 3216 3216 3215 3215 3215 3215 3214 3214
3175 3176 3177 3179 3181 3182 3184 3185 3186 3187 3188 3190 3190 3192 3193 3194 3195 3196 3197 3198 3199 3200 3200 3201 3202 3202 3203 3203 3204 3205 3205 3206 3206 3206 3206 3206 3206 3207 3207 3206 3206 3206 3207 3207 3207 3207 3207 3207 3207 3207 3207 3208 3208 3208 3208 3208 3208 3209 3209 3209 3210 3211 3211 3210 3211 3214 3214 3214 3215 3215 3215 3215 3215 3216 3216 3216 3217 3217 3217 3216 3216 3216 3215 3215 3215
3175 3177 3178 3179 3181 3183 3184 3186 3187 3188 3190 3191 3192 3193 3194 3195 3195 3196 3197 3198 3199 3200 3201 3202 3202 3203 3203 3204 3205 3205 3206 3206 3207 3207 3207 3207 3207 3207 3207 3207 3207 3207 3207 3207 3208 3208 3208 3208 3208 3208 3208 3208 3208 3209 3209 3209 3209 3209 3210 3210 3211 3211 3211 3211 3213 3214 3214 3214 3215 3214 3215 3215 3216 3216 3217 3217 3217 3217 3217 3217 3216 3216 3216 3216 3216
3176 3178 3179 3180 3181 3183 3184 3186 3187 3189 3190 3191 3192 3193 3194 3195 3196 3197 3198 3199 3200 3201 3201 3202 3203 3203 3204 3205 3206 3206 3207 3207 3207 3207 3208 3208 3208 3208 3208 3208 3208 3208 3208 3208 3208 3208 3208 3209 3209 3209 3209 3209 3209 3209 3209 3209 3209 3210 3210 3210 3211 3211 3211 3212 3213 3213 3214 3214 3214 3214 3215 3215 3216 3217 3217 3217 3218 3218 3217 3217 3217 3217 3217 3217 3217
3178 3179 3180 3181 3183 3184 3185 3186 3187 3189 3190 3191 3192 3193 3194 3195 3196 3197 3198 3199 3200 3201 3202 3202 3203 3204 3205 3206 3206 3207 3207 3208 3208 3208 3208 3208 3208 3209 3209 3209 3208 3209 3209 3209 3209 3209 3209 3209 3210 3210 3210 3210 3210 3210 3210 3210 3210 3211 3211 3211 3211 3211 3212 3213 3213 3214 3214 3214 3214 3215 3216 3216 3217 3217 3218 3218 3218 3218 3218 3218 3218 3218 3218 3218 3218
3179 3180 3181 3182 3184 3185 3186 3187 3188 3189 3190 3191 3192 3193 3194 3195 3197 3198 3199 3200 3201 3201 3202 3203 3204 3205 3206 3207 3207 3208 3208 3208 3208 3209 3209 3209 3209 3210 3210 3209 3209 3209 3210 3210 3210 3210 3210 3211 3211 3211 3211 3211 3211 3211 3211 3211 3211 3212 3211 3212 3212 3212 3213 3214 3214 3215 3214 3214 3215 3215 3216 3217 3218 3218 3219 3219 3219 3219 3219 3219 3219 3219 3219 3219 3219
3180 3181 3182 3183 3184 3186 3187 3187 3188 3189 3191 3192 3193 3194 3195 3196 3197 3198 3199 3200 3201 3202 3203 3204 3205 3206 3207 3207 3208 3208 3209 3209 3209 3209 3210 3210 3210 3210 3210 3210 3210 3210 3210 3210 3211 3211 3211 3212 3212 3212 3212 3212 3212 3212 3212 3212 3213 3212 3212 3212 3212 3213 3214 3214 3215 3216 3215 3215 3215 3216 3217 3218 3218 3219 3220 3220 3220 3220 3220 3220 3220 3220 3220 3220 3220
3181 3182 3183 3184 3185 3186 3187 3188 3189 3190 3191 3193 3194 3195 3196 3197 3198 3199 3200 3201 3202 3203 3204 3205 3206 3207 3207 3208 3209 3209 3209 3210 3210 3210 3210 3211 3211 3211 3211 3211 3211 3211 3211 3211 3211 3212 3212 3212 3213 3213 3213 3213 3213 3213 3213 3214 3214 3213 3213 3213 3213 3214 3214 3214 3215 3216 3216 3216 3217 3217 3218 3219 3219 3220 3220 3221 3221 3221 3221 3221 3221 3222 3222 3221 3221
3181 3182 3183 3185 3186 3187 3188 3189 3190 3191 3192 3193 3195 3196 3197 3198 3199 3201 3202 3203 3203 3204 3205 3206 3207 3207 3208 3209 3209 3210 3210 3210 3211 3211 3211 3212 3212 3212 3212 3212 3212 3212 3212 3212 3213 3213 3213 3213 3214 3214 3215 3215 3215 3215 3215 3215 3215 3215 3215 3214 3215 3214 3215 3216 3216 3216 3217 3218 3218 3219 3219 3220 3220 3221 3221 3221 3221 3221 3222 3222 3222 3222 3223 3222 3223
3182 3183 3184 3185 3186 3187 3188 3189 3191 3192 3193 3194 3196 3197 3198 3200 3201 3202 3203 3204 3205 3205 3206 3207 3208 3208 3209 3209 3210 3210 3211 3211 3212 3212 3212 3213 3213 3212 3212 3212 3212 3213 3213 3213 3214 3214 3214 3215 3215 3216 3216 3216 3216 3216 3216 3216 3216 3216 3216 3216 3216 3216 3216 3217 3218 3218 3218 3219 3220 3220 3220 3221 3221 3222 3222 3222 3222 3222 3223 3223 3223 3223 3223 3223 3224
3183 3184 3185 3186 3187 3188 3189 3190 3192 3193 3194 3195 3197 3198 3199 3201 3202 3203 3204 3205 3206 3207 3207 3208 3209 3209 3210 3210 3211 3211 3212 3212 3212 3213 3213 3213 3213 3213 3213 3213 3213 3214 3214 3215 3215 3215 3215 3216 3216 3217 3217 3217 3217 3217 3217 3217 3217 3217 3217 3217 3217 3217 3218 3219 3219 3219 3219 3220 3221 3221 3221 3222 3222 3223 3223 3223 3223 3224 3224 3225 3225 3225 3224 3225 3225
3184 3185 3186 3187 3188 3189 3190 3191 3192 3194 3195 3197 3198 3199 3201 3202 3203 3204 3205 3206 3207 3207 3208 3209 3210 3210 3210 3211 3212 3212 3213 3213 3213 3214 3214 3214 3214 3214 3214 3214 3215 3215 3215 3216 3216 3216 3217 3217 3217 3218 3218 3218 3218 3217 3218 3218 3218 3218 3218 3218 3219 3219 3219 3220 3220 3221 3221 3221 3222 3223 3223 3223 3223 3224 3225 3225 3225 3225 3226 3226 3226 3226 3226 3226 3226
3185 3186 3187 3188 3188 3189 3191 3192 3194 3195 3197 3198 3199 3201 3202 3203 3204 3205 3206 3207 3207 3208 3209 3210 3211 3211 3211 3212 3213 3213 3213 3214 3214 3215 3215 3215 3215 3215 3216 3216 3216 3216 3216 3217 3217 3217 3218 3218 3218 3219 3219 3219 3218 3218 3219 3219 3219 3219 3219 3220 3220 3220 3221 3221 3222 3222 3222 3223 3223 3224 3224 3224 3225 3225 3226 3226 3226 3226 3227 3227 3227 3227 3227 3227 3227
3186 3187 3188 3189 3190 3191 3192 3194 3195 3196 3198 3199 3200 3201 3203 3204 3204 3206 3206 3207 3208 3209 3210 3211 3211 3212 3212 3213 3213 3214 3214 3215 3215 3216 3216 3216 3216 3216 3216 3217 3217 3217 3217 3217 3218 3218 3219 3219 3219 3220 3220 3220 3220 3219 3220 3220 3221 3221 3221 3221 3221 3222 3222 3223 3223 3224 3224 3224 3225 3225 3225 3226 3226 3226 3227 3227 3227 3227 3228 3228 3228 3228 3228 3228 3228
3187 3188 3189 3190 3191 3192 3193 3194 3196 3197 3198 3200 3201 3202 3203 3204 3205 3206 3207 3208 3209 3210 3211 3212 3212 3212 3213 3213 3214 3214 3215 3216 3216 3217 3217 3217 3217 3217 3217 3218 3218 3218 3218 3219 3219 3219 3220 3220 3221 3221 3222 3222 3221 3221 3221 3222 3222 3222 3222 3222 3223 3223 3224 3224 3224 3225 3225 3226 3226 3226 3227 3227 3227 3228 3228 3228 3228 3228 3229 3229 3229 3229 3229 3229 3229
3187 3189 3190 3191 3192 3193 3194 3195 3196 3197 3198 3200 3201 3203 3204 3205 3206 3207 3208 3209 3210 3211 3212 3213 3213 3214 3214 3214 3215 3215 3216 3216 3217 3218 3218 3218 3218 3218 3219 3219 3219 3219 3220 3220 3220 3220 3221 3221 3222 3223 3223 3223 3223 3222 3222 3223 3223 3223 3224 3224 3224 3224 3225 3225 3225 3226 3226 3227 3227 3227 3228 3228 3228 3229 3229 3229 3229 3229 3229 3229 3230 3230 3230 3230 3230
3188 3189 3191 3192 3192 3193 3194 3195 3196 3197 3199 3200 3202 3203 3205 3206 3207 3208 3209 3210 3211 3212 3213 3213 3214 3215 3215 3215 3216 3216 3216 3217 3218 3219 3219 3220 3220 3220 3220 3220 3220 3220 3220 3221 3221 3222 3222 3223 3223 3224 3224 3224 3224 3224 3224 3224 3224 3225 3225 3225 3226 3226 3226 3226 3226 3227 3227 3228 3228 3229 3229 3229 3230 3230 3230 3230 3230 3230 3230 3230 3231 3231 3231 3231 3231
3189 3190 3191 3192 3193 3194 3194 3195 3197 3198 3200 3201 3203 3204 3206 3207 3208 3209 3209 3211 3212 3212 3213 3214 3215 3215 3216 3216 3217 3217 3217 3218 3218 3219 3221 3221 3222 3222 3222 3222 3222 3222 3222 3222 3223 3223 3224 3224 3225 3225 3225 3225 3226 3226 3225 3225 3226 3226 3227 3227 3227 3227 3227 3227 3227 3228 3228 3229 3229 3229 3230 3230 3230 3231 3231 3231 3231 3231 3231 3231 3232 3232 3232 3232 3232
3189 3190 3191 3192 3193 3194 3195 3196 3197 3198 3200 3202 3203 3205 3206 3207 3208 3209 3210 3211 3212 3213 3214 3215 3216 3216 3217 3217 3218 3218 3218 3219 3220 3221 3222 3223 3223 3224 3224 3224 3224 3223 3224 3224 3224 3225 3225 3226 3226 3226 3226 3227 3227 3227 3227 3227 3227 3227 3228 3228 3228 3228 3228 3228 3228 3229 3229 3230 3230 3230 3230 3231 3231 3232 3232 3232 3232 3232 3232 3232 3232 3233 3233 3233 3233
3189 3190 3191 3192 3193 3194 3195 3196 3197 3199 3200 3202 3203 3205 3206 3208 3209 3210 3211 3212 3213 3214 3215 3216 3216 3217 3218 3219 3219 3219 3220 3220 3221 3222 3223 3224 3224 3225 3225 3226 3226 3226 3226 3226 3226 3226 3227 3227 3227 3227 3227 3228 3228 3228 3228 3228 3228 3228 3228 3229 3229 3229 3229 3229 3229 3230 3230 3230 3230 3231 3231 3232 3232 3232 3233 3233 3233 3233 3233 3233 3233 3234 3234 3233 3233
3188 3190 3191 3192 3193 3194 3195 3196 3198 3199 3201 3202 3204 3205 3207 3208 3209 3211 3212 3213 3214 3215 3215 3217 3217 3218 3219 3220 3221 3221 3221 3222 3222 3223 3224 3225 3225 3226 3227 3227 3228 3228 3228 3228 3228 3228 3228 3228 3228 3228 3228 3229 3229 3229 3229 3230 3230 3230 3230 3230 3230 3230 3230 3230 3231 3231 3231 3231 3231 3232 3232 3232 3232 3233 3233 3233 3233 3234 3234 3234 3234 3234 3234 3234 3234
3188 3190 3191 3192 3193 3194 3195 3196 3198 3199 3201 3202 3204 3206 3207 3209 3210 3211 3213 3214 3215 3216 3216 3217 3218 3219 3219 3220 3221 3222 3222 3223 3223 3224 3224 3225 3226 3226 3227 3228 3228 3229 3229 3229 3229 3229 3229 3229 3229 3229 3229 3230 3230 3230 3231 3231 3231 3231 3232 3232 3231 3231 3232 3232 3232 3232 3232 3232 3232 3232 3232 3233 3233 3233 3234 3234 3234 3234 3234 3234 3234 3234 3234 3234 3234
3188 3190 3191 3192 3193 3194 3195 3197 3198 3200 3201 3203 3204 3206 3208 3209 3211 3212 3213 3214 3215 3216 3217 3218 3219 3220 3220 3221 3222 3223 3223 3224 3224 3225 3225 3226 3226 3227 3228 3228 3228 3229 3229 3229 3230 3230 3231 3231 3230 3230 3231 3231 3231 3232 3232 3232 3232 3233 3233 3233 3233 3233 3233 3233 3233 3233 3233 3233 3233 3233 3233 3233 3234 3234 3234 3234 3234 3234 3234 3234 3234 3234 3234 3234 3234
3188 3190 3191 3192 3193 3195 3196 3197 3198 3200 3201 3203 3205 3206 3208 3210 3211 3213 3214 3215 3216 3217 3218 3219 3220 3221 3222 3222 3223 3224 3224 3225 3226 3226 3227 3227 3227 3228 3229 3229 3229 3229 3229 3230 3231 3231 3231 3232 3231 3232 3232 3232 3232 3232 3233 3233 3233 3233 3234 3234 3234 3235 3235 3235 3235 3235 3235 3235 3234 3234 3234 3234 3234 3235 3235 3235 3235 3234 3234 3234 3235 3235 3235 3235 3235
3188 3190 3191 3192 3194 3195 3196 3197 3199 3200 3202 3204 3205 3207 3208 3210 3212 3214 3215 3216 3217 3218 3219 3220 3221 3222 3223 3224 3224 3225 3225 3226 3227 3227 3227 3228 3229 3230 3230 3230 3230 3230 3230 3231 3231 3231 3232 3232 3232 3232 3232 3232 3232 3233 3234 3234 3234 3234 3235 3235 3235 3235 3236 3236 3236 3236 3236 3236 3236 3235 3235 3235 3235 3236 3236 3236 3236 3236 3236 3236 3236 3236 3236 3236 3236
3189 3190 3191 3193 3194 3195 3196 3198 3199 3201 3202 3204 3206 3207 3208 3210 3212 3214 3215 3217 3218 3219 3220 3221 3222 3223 3224 3225 3225 3225 3226 3227 3228 3228 3228 3229 3230 3230 3230 3231 3231 3231 3231 3232 3232 3232 3232 3232 3232 3233 3233 3232 3233 3234 3234 3234 3235 3235 3236 3236 3235 3235 3236 3236 3237 3237 3237 3237 3237 3237 3237 3237 3237 3237 3237 3237 3237 3237 3237 3237 3237 3237 3237 3237 3237
3189 3190 3192 3193 3194 3195 3196 3198 3200 3201 3203 3204 3206 3207 3209 3210 3212 3214 3216 3217 3218 3219 3220 3221 3223 3224 3225 3225 3226 3226 3227 3228 3229 3229 3229 3229 3230 3231 3231 3231 3231 3232 3232 3233 3232 3232 3233 3233 3233 3234 3234 3233 3234 3235 3235 3236 3236 3237 3237 3237 3236 3236 3236 3237 3237 3237 3237 3238 3238 3238 3238 3238 3238 3238 3238 3238 3238 3238 3238 3238 3238 3238 3238 3238 3238
3189 3191 3192 3193 3194 3196 3197 3198 3200 3201 3203 3205 3206 3207 3209 3210 3213 3215 3216 3218 3219 3220 3221 3222 3223 3224 3225 3225 3226 3227 3227 3229 3230 3230 3230 3230 3232 3232 3232 3232 3232 3233 3233 3233 3233 3233 3234 3234 3234 3235 3235 3235 3235 3236 3236 3237 3237 3237 3237 3237 3237 3237 3237 3237 3238 3238 3238 3238 3238 3238 3238 3238 3238 3239 3239 3239 3239 3239 3239 3239 3238 3238 3238 3238 3238
3189 3190 3192 3193 3194 3196 3197 3198 3200 3202 3203 3205 3206 3208 3209 3211 3213 3215 3217 3219 3220 3220 3222 3223 3224 3225 3226 3226 3227 3228 3229 3230 3231 3231 3231 3231 3232 3233 3233 3233 3234 3234 3233 3233 3234 3234 3235 3235 3235 3236 3236 3236 3236 3237 3237 3237 3238 3238 3238 3238 3238 3238 3238 3238 3238 3238 3239 3239 3239 3239 3239 3239 3239 3239 3239 3239 3239 3239 3239 3239 3239 3239 3239 3239 3239
3189 3190 3192 3193 3195 3196 3197 3198 3200 3202 3204 3205 3207 3208 3210 3212 3214 3216 3217 3219 3220 3221 3222 3224 3225 3226 3227 3228 3229 3230 3230 3231 3231 3232 3232 3231 3231 3232 3233 3233 3234 3234 3233 3234 3234 3235 3235 3236 3236 3236 3236 3236 3237 3237 3237 3238 3238 3238 3238 3239 3239 3239 3238 3238 3239 3239 3239 3239 3239 3240 3240 3239 3239 3239 3240 3240 3240 3240 3240 3240 3240 3240 3239 3239 3239
3188 3190 3192 3193 3195 3196 3197 3198 3200 3202 3204 3205 3207 3208 3210 3212 3214 3216 3217 3219 3220 3221 3222 3224 3226 3227 3228 3229 3230 3231 3231 3232 3232 3233 3233 3232 3232 3233 3233 3233 3233 3234 3234 3235 3235 3235 3236 3236 3236 3236 3237 3237 3237 3237 3238 3238 3238 3239 3238 3239 3239 3239 3239 3239 3239 3240 3240 3240 3240 3240 3240 3240 3240 3240 3240 3240 3240 3241 3240 3240 3240 3240 3240 3239 3239
3188 3190 3192 3193 3194 3196 3197 3198 3200 3202 3204 3205 3207 3208 3210 3212 3213 3215 3217 3218 3220 3222 3223 3224 3226 3228 3229 3230 3230 3231 3232 3233 3233 3233 3233 3233 3233 3233 3234 3234 3235 3235 3235 3236 3236 3236 3236 3237 3237 3237 3237 3237 3238 3238 3238 3239 3239 3239 3239 3239 3239 3240 3240 3240 3240 3240 3240 3240 3240 3240 3240 3240 3240 3241 3241 3241 3241 3241 3241 3241 3241 3240 3240 3239 3239
3188 3190 3191 3193 3194 3195 3197 3198 3200 3202 3203 3205 3207 3208 3210 3212 3213 3215 3217 3219 3220 3222 3223 3225 3226 3228 3229 3230 3231 3232 3233 3233 3233 3234 3234 3234 3234 3234 3234 3235 3235 3236 3236 3236 3237 3237 3237 3238 3237 3237 3238 3238 3238 3238 3239 3239 3239 3239 3239 3240 3240 3240 3240 3240 3240 3240 3240 3240 3240 3240 3240 3240 3241 3241 3241 3241 3242 3242 3241 3241 3241 3240 3240 3240 3239
3188 3190 3191 3193 3194 3195 3197 3198 3200 3202 3203 3205 3207 3208 3210 3211 3213 3215 3217 3219 3220 3222 3223 3224 3226 3228 3229 3230 3231 3232 3233 3234 3234 3234 3234 3234 3235 3235 3235 3236 3236 3236 3236 3237 3237 3238 3238 3238 3238 3238 3238 3238 3238 3239 3239 3240 3240 3240 3240 3240 3240 3240 3240 3241 3241 3241 3241 3241 3241 3241 3241 3241 3241 3241 3242 3242 3242 3242 3242 3241 3241 3240 3240 3240 3240
3188 3189 3191 3192 3194 3195 3197 3198 3200 3202 3203 3205 3206 3208 3210 3211 3213 3215 3217 3218 3220 3222 3223 3224 3226 3228 3229 3230 3231 3232 3233 3234 3234 3234 3235 3235 3235 3236 3236 3236 3236 3237 3237 3237 3238 3238 3238 3238 3238 3238 3239 3239 3239 3239 3240 3240 3240 3241 3241 3241 3241 3241 3241 3241 3242 3242 3242 3241 3241 3241 3241 3241 3241 3242 3242 3242 3242 3242 3242 3241 3241 3241 3240 3240 3240
3187 3189 3190 3192 3194 3195 3196 3198 3199 3201 3203 3204 3206 3208 3209 3211 3213 3215 3216 3218 3220 3221 3223 3224 3226 3227 3229 3230 3231 3232 3233 3234 3234 3234 3235 3235 3236 3236 3236 3236 3237 3238 3238 3238 3238 3238 3238 3238 3238 3238 3239 3239 3239 3240 3240 3240 3241 3241 3241 3241 3241 3242 3242 3242 3242 3242 3242 3242 3242 3242 3242 3242 3242 3242 3242 3242 3242 3242 3242 3242 3241 3241 3241 3241 3240
3187 3188 3190 3192 3193 3195 3195 3197 3199 3201 3202 3204 3206 3207 3209 3211 3212 3214 3216 3218 3219 3221 3223 3224 3226 3227 3228 3229 3231 3232 3233 3234 3234 3234 3235 3235 3236 3237 3237 3237 3237 3238 3239 3239 3239 3239 3238 3238 3238 3238 3239 3239 3240 3240 3241 3241 3241 3241 3241 3241 3242 3242 3242 3243 3243 3243 3243 3243 3243 3243 3243 3243 3242 3243 3243 3243 3242 3242 3242 3242 3242 3242 3242 3241 3241
3186 3188 3189 3191 3192 3194 3195 3196 3198 3200 3202 3203 3205 3207 3208 3210 3212 3214 3215 3217 3219 3220 3222 3224 3226 3227 3228 3229 3230 3232 3233 3233 3234 3234 3235 3235 3236 3237 3238 3238 3238 3238 3239 3239 3239 3239 3239 3238 3238 3239 3239 3239 3240 3240 3241 3241 3241 3241 3242 3242 3242 3243 3243 3243 3243 3243 3244 3244 3244 3244 3244 3243 3243 3243 3243 3243 3242 3242 3242 3243 3243 3243 3242 3242 3242
3185 3187 3189 3190 3191 3193 3194 3196 3197 3199 3201 3203 3204 3206 3208 3210 3212 3213 3215 3217 3219 3221 3222 3223 3225 3227 3228 3229 3230 3231 3233 3233 3234 3234 3235 3236 3236 3237 3238 3238 3237 3238 3239 3239 3239 3239 3239 3239 3239 3239 3240 3240 3240 3241 3241 3241 3241 3242 3242 3242 3243 3243 3243 3244 3244 3244 3244 3244 3244 3244 3244 3244 3244 3244 3243 3243 3243 3242 3243 3243 3243 3243 3243 3243 3242
3184 3186 3188 3189 3191 3193 3194 3195 3197 3198 3201 3203 3204 3206 3208 3210 3212 3213 3215 3217 3219 3221 3222 3223 3225 3226 3228 3229 3230 3231 3232 3233 3234 3234 3235 3236 3236 3237 3237 3237 3237 3238 3239 3239 3239 3240 3240 3240 3240 3240 3240 3240 3241 3241 3241 3242 3242 3242 3243 3243 3243 3243 3244 3244 3244 3244 3244 3244 3244 3244 3244 3244 3244 3244 3244 3244 3244 3243 3244 3244 3244 3243 3243 3243 3243
3183 3185 3187 3189 3190 3192 3193 3195 3196 3198 3200 3202 3204 3206 3208 3210 3212 3213 3215 3216 3218 3220 3222 3223 3225 3226 3227 3229 3230 3231 3232 3233 3233 3234 3235 3236 3236 3237 3237 3237 3238 3238 3239 3239 3240 3240 3240 3240 3240 3241 3241 3241 3241 3241 3242 3242 3243 3243 3243 3243 3244 3244 3244 3244 3244 3245 3245 3245 3245 3245 3245 3245 3245 3244 3244 3244 3244 3244 3244 3244 3244 3244 3244 3244 3244
3182 3184 3186 3187 3189 3190 3192 3194 3196 3198 3200 3202 3204 3206 3208 3209 3211 3213 3214 3216 3218 3219 3221 3222 3224 3226 3227 3228 3230 3231 3232 3232 3233 3234 3235 3235 3236 3237 3237 3237 3238 3239 3239 3239 3240 3240 3240 3240 3241 3241 3241 3241 3242 3242 3242 3242 3243 3243 3244 3244 3244 3244 3244 3245 3245 3245 3245 3245 3245 3245 3245 3245 3245 3245 3245 3245 3245 3245 3245 3245 3245 3244 3244 3245 3245
3181 3183 3185 3186 3188 3190 3192 3193 3195 3197 3199 3201 3203 3205 3207 3208 3210 3212 3213 3214 3216 3218 3220 3222 3223 3225 3227 3228 3229 3230 3231 3232 3233 3234 3235 3235 3236 3237 3238 3238 3238 3239 3239 3239 3240 3240 3241 3241 3242 3242 3242 3242 3242 3242 3242 3243 3243 3244 3244 3244 3245 3245 3245 3245 3245 3245 3245 3245 3245 3245 3245 3246 3245 3245 3245 3245 3245 3246 3246 3246 3245 3245 3246 3246 3246
3180 3182 3184 3186 3187 3189 3191 3192 3194 3197 3198 3200 3202 3204 3206 3207 3209 3210 3212 3213 3215 3217 3219 3221 3223 3225 3226 3227 3229 3230 3231 3232 3233 3234 3235 3236 3237 3237 3238 3239 3239 3239 3240 3240 3240 3241 3241 3241 3242 3243 3243 3242 3242 3242 3242 3243 3244 3244 3244 3245 3245 3245 3245 3245 3246 3245 3245 3245 3245 3246 3246 3246 3246 3246 3246 3246 3246 3246 3246 3247 3246 3247 3247 3247 3247
3179 3181 3183 3185 3186 3188 3190 3192 3193 3196 3198 3200 3201 3203 3205 3207 3208 3210 3211 3213 3216 3218 3219 3221 3222 3224 3225 3227 3228 3230 3231 3232 3233 3234 3235 3236 3237 3237 3238 3239 3239 3240 3240 3241 3241 3241 3242 3242 3242 3243 3243 3243 3243 3243 3243 3243 3244 3244 3245 3245 3245 3245 3245 3246 3246 3246 3246 3246 3246 3246 3246 3246 3246 3246 3246 3247 3247 3247 3247 3247 3247 3248 3248 3249 3249
3178 3180 3181 3183 3185 3187 3189 3191 3193 3195 3197 3199 3200 3202 3204 3206 3208 3209 3211 3213 3216 3218 3219 3220 3222 3223 3225 3226 3227 3229 3230 3231 3233 3234 3235 3236 3237 3237 3238 3239 3240 3240 3240 3241 3241 3242 3242 3242 3243 3243 3243 3243 3243 3244 3244 3244 3245 3245 3245 3245 3245 3246 3246 3246 3246 3246 3247 3247 3247 3247 3247 3248 3247 3247 3247 3247 3247 3248 3248 3248 3248 3249 3250 3250 3250
3176 3178 3180 3182 3184 3186 3188 3190 3192 3194 3196 3198 3199 3201 3203 3205 3207 3208 3210 3212 3214 3216 3217 3219 3220 3222 3224 3225 3227 3228 3229 3231 3232 3233 3234 3235 3236 3237 3238 3239 3240 3240 3241 3241 3242 3242 3243 3243 3243 3244 3244 3244 3244 3244 3244 3245 3245 3245 3246 3246 3246 3246 3246 3246 3247 3247 3247 3248 3248 3248 3248 3249 3249 3249 3249 3249 3249 3249 3249 3249 3250 3250 3251 3251 3251
3175 3177 3179 3181 3182 3184 3186 3188 3190 3192 3194 3196 3198 3200 3202 3203 3205 3207 3209 3211 3213 3214 3216 3217 3219 3221 3223 3224 3226 3227 3229 3230 3231 3232 3234 3235 3236 3237 3238 3239 3240 3240 3241 3241 3242 3242 3243 3243 3244 3244 3244 3244 3245 3245 3245 3245 3245 3246 3246 3246 3247 3247 3247 3247 3247 3247 3248 3248 3248 3248 3249 3249 3250 3250 3250 3250 3250 3250 3251 3251 3251 3252 3252 3252 3253
3173 3175 3177 3179 3180 3182 3185 3187 3189 3191 3193 3195 3197 3199 3200 3202 3204 3206 3208 3210 3211 3213 3214 3216 3218 3220 3222 3223 3225 3227 3228 3229 3230 3232 3233 3234 3235 3236 3237 3238 3239 3240 3241 3241 3242 3242 3243 3243 3244 3244 3245 3245 3245 3245 3246 3246 3246 3246 3247 3247 3247 3247 3248 3248 3248 3248 3248 3249 3249 3249 3249 3249 3250 3250 3251 3251 3251 3251 3252 3252 3252 3253 3253 3253 3254